Location: Geroldsau
(48.7259°N, 8.2466°E)
Time: 09:55:02
(UTC+00:00)

NOSS 2-3 (E) - Pass Details

Date: 20 June 2021
Orbit: 555 x 1655 km, 63.4° (Epoch: 23 July)

Event Time Altitude Azimuth Distance (km) Brightness Sun altitude
Exits shadow 00:42:31 17° 247° (WSW) 1,536 5.2 -16.0°
Maximum altitude 00:45:38 51° 320° (NW) 815 4.3 -15.8°
Drops below altitude 10° 00:50:36 10° 36° (NE) 2,301 7.7 -15.5°
Sets 00:53:23 0° 42° (NE) 3,397 8.7 -15.4°
